Meteo pe oră la Shannon

Astăzi, 31 Octombrie, Sâmbătă

Timp Temperatura Precipitaţii Vânt Presiune Umiditate
00:00 +14°C° 2.8 mm 7 m/s 747 mmHg 93%
01:00 +15°C° 2.8 mm 8 m/s 745 mmHg 93%
02:00 +16°C° 2.8 mm 9 m/s 743 mmHg 92%
03:00 +16°C° 2.4 mm 10 m/s 742 mmHg 91%
04:00 +16°C° 2.4 mm 10 m/s 741 mmHg 90%
05:00 +15°C° 0 mm 9 m/s 740 mmHg 88%
06:00 +12°C° 0.8 mm 9 m/s 741 mmHg 86%
07:00 +9°C° 0.8 mm 10 m/s 742 mmHg 84%
08:00 +8°C° 0.8 mm 10 m/s 743 mmHg 83%
09:00 +8°C° 0.1 mm 10 m/s 745 mmHg 81%
10:00 +8°C° 0.1 mm 10 m/s 747 mmHg 79%
11:00 +8°C° 0 mm 9 m/s 748 mmHg 77%
12:00 +9°C° 0.1 mm 8 m/s 749 mmHg 76%
13:00 +9°C° 0.1 mm 7 m/s 750 mmHg 74%
14:00 +9°C° 0.1 mm 7 m/s 751 mmHg 72%
15:00 +8°C° 0 mm 6 m/s 750 mmHg 74%
16:00 +7°C° 0 mm 5 m/s 750 mmHg 76%
17:00 +6°C° 0 mm 4 m/s 750 mmHg 79%
18:00 +6°C° 0.2 mm 5 m/s 750 mmHg 81%
19:00 +6°C° 0.2 mm 5 m/s 749 mmHg 84%
20:00 +5°C° 0.2 mm 6 m/s 748 mmHg 87%
21:00 +6°C° 0.3 mm 8 m/s 746 mmHg 88%
22:00 +7°C° 0.3 mm 9 m/s 744 mmHg 89%
23:00 +8°C° 0.3 mm 10 m/s 741 mmHg 90%

Mâine, 1 Noiembrie, Duminică

Timp Temperatura Precipitaţii Vânt Presiune Umiditate
00:00 +9°C° 0.2 mm 10 m/s 741 mmHg 89%
01:00 +10°C° 0.2 mm 9 m/s 741 mmHg 88%
02:00 +11°C° 0.2 mm 8 m/s 741 mmHg 87%
03:00 +10°C° 0 mm 7 m/s 742 mmHg 85%
04:00 +8°C° 0 mm 7 m/s 743 mmHg 84%
05:00 +7°C° 0 mm 6 m/s 744 mmHg 82%
06:00 +8°C° 0 mm 6 m/s 744 mmHg 83%
07:00 +8°C° 0 mm 6 m/s 745 mmHg 83%
08:00 +8°C° 0 mm 6 m/s 745 mmHg 83%
09:00 +9°C° 0.3 mm 6 m/s 745 mmHg 86%
10:00 +9°C° 0.3 mm 6 m/s 745 mmHg 88%
11:00 +9°C° 0.3 mm 6 m/s 744 mmHg 90%
12:00 +9°C° 0.9 mm 5 m/s 743 mmHg 92%
13:00 +10°C° 0.9 mm 3 m/s 742 mmHg 94%
14:00 +10°C° 0.9 mm 2 m/s 741 mmHg 97%
15:00 +12°C° 0.8 mm 2 m/s 741 mmHg 97%
16:00 +12°C° 0.8 mm 1 m/s 740 mmHg 97%
17:00 +12°C° 0.8 mm 1 m/s 740 mmHg 98%
18:00 +12°C° 0.5 mm 1 m/s 739 mmHg 97%
19:00 +13°C° 0.5 mm 1 m/s 739 mmHg 97%
20:00 +13°C° 0.5 mm 2 m/s 739 mmHg 97%
21:00 +12°C° 0.9 mm 3 m/s 739 mmHg 96%
22:00 +13°C° 0.9 mm 3 m/s 738 mmHg 95%
23:00 +14°C° 0.9 mm 4 m/s 738 mmHg 94%

Poimâine, 2 Noiembrie, Luni

Timp Temperatura Precipitaţii Vânt Presiune Umiditate
00:00 +13°C° 0.3 mm 4 m/s 737 mmHg 94%
01:00 +12°C° 0.3 mm 4 m/s 737 mmHg 94%
02:00 +12°C° 0.3 mm 3 m/s 736 mmHg 94%
03:00 +9°C° 1.3 mm 5 m/s 737 mmHg 94%
04:00 +8°C° 1.3 mm 6 m/s 738 mmHg 93%
05:00 +5°C° 1.3 mm 7 m/s 738 mmHg 92%
06:00 +6°C° 0.5 mm 7 m/s 740 mmHg 89%
07:00 +6°C° 0.5 mm 7 m/s 742 mmHg 86%
08:00 +6°C° 0.5 mm 7 m/s 743 mmHg 83%
09:00 +6°C° 0.2 mm 8 m/s 744 mmHg 82%
10:00 +6°C° 0.2 mm 10 m/s 744 mmHg 81%
11:00 +6°C° 0.2 mm 11 m/s 745 mmHg 80%
12:00 +6°C° 1 mm 10 m/s 745 mmHg 83%
13:00 +6°C° 1 mm 9 m/s 746 mmHg 86%
14:00 +6°C° 1 mm 8 m/s 746 mmHg 90%
15:00 +6°C° 1.5 mm 7 m/s 748 mmHg 90%
16:00 +6°C° 1.5 mm 7 m/s 749 mmHg 90%
17:00 +5°C° 1.5 mm 6 m/s 750 mmHg 91%
18:00 +5°C° 2.2 mm 6 m/s 752 mmHg 91%
19:00 +5°C° 2.2 mm 7 m/s 753 mmHg 91%
20:00 +5°C° 2.2 mm 7 m/s 755 mmHg 92%
21:00 +5°C° 1.4 mm 7 m/s 756 mmHg 90%
22:00 +5°C° 1.4 mm 7 m/s 756 mmHg 88%
23:00 +5°C° 1.4 mm 7 m/s 757 mmHg 86%

3 Noiembrie, Marţi

Timp Temperatura Precipitaţii Vânt Presiune Umiditate
00:00 +5°C° 0.3 mm 7 m/s 758 mmHg 87%
01:00 +5°C° 0.3 mm 8 m/s 759 mmHg 88%
02:00 +5°C° 0.3 mm 8 m/s 759 mmHg 90%
03:00 +5°C° 0.8 mm 7 m/s 760 mmHg 88%
04:00 +5°C° 0.8 mm 6 m/s 761 mmHg 86%
05:00 +6°C° 0.8 mm 5 m/s 762 mmHg 84%
06:00 +5°C° 0.1 mm 5 m/s 763 mmHg 84%
07:00 +5°C° 0.1 mm 5 m/s 764 mmHg 84%
08:00 +5°C° 0.1 mm 4 m/s 764 mmHg 84%
09:00 +6°C° 0.3 mm 5 m/s 765 mmHg 82%
10:00 +7°C° 0.3 mm 6 m/s 765 mmHg 79%
11:00 +6°C° 0.3 mm 7 m/s 765 mmHg 77%
12:00 +7°C° 0.3 mm 6 m/s 766 mmHg 79%
13:00 +7°C° 0.3 mm 6 m/s 766 mmHg 80%
14:00 +7°C° 0.3 mm 6 m/s 766 mmHg 82%
15:00 +7°C° 0.6 mm 6 m/s 766 mmHg 85%
16:00 +6°C° 0.6 mm 5 m/s 766 mmHg 88%
17:00 +6°C° 0.6 mm 4 m/s 766 mmHg 92%
18:00 +5°C° 0.3 mm 4 m/s 767 mmHg 91%
19:00 +5°C° 0.3 mm 4 m/s 767 mmHg 91%
20:00 +5°C° 0.3 mm 3 m/s 768 mmHg 90%
21:00 +4°C° 0 mm 3 m/s 768 mmHg 90%
22:00 +4°C° 0 mm 3 m/s 769 mmHg 89%
23:00 +5°C° 0 mm 2 m/s 769 mmHg 89%

4 Noiembrie, Miercuri

Timp Temperatura Precipitaţii Vânt Presiune Umiditate
00:00 +5°C° 0 mm 2 m/s 770 mmHg 89%
01:00 +5°C° 0 mm 2 m/s 770 mmHg 89%
02:00 +4°C° 0 mm 2 m/s 770 mmHg 89%
03:00 +4°C° 0 mm 2 m/s 771 mmHg 89%
04:00 +4°C° 0 mm 2 m/s 771 mmHg 88%
05:00 +4°C° 0 mm 2 m/s 772 mmHg 88%
06:00 +5°C° 0 mm 2 m/s 772 mmHg 88%
07:00 +5°C° 0 mm 2 m/s 773 mmHg 88%
08:00 +6°C° 0 mm 2 m/s 773 mmHg 88%
09:00 +7°C° 0 mm 2 m/s 773 mmHg 85%
10:00 +8°C° 0 mm 3 m/s 774 mmHg 82%
11:00 +9°C° 0 mm 3 m/s 774 mmHg 79%
12:00 +10°C° 0 mm 3 m/s 774 mmHg 80%
13:00 +10°C° 0 mm 3 m/s 774 mmHg 80%
14:00 +10°C° 0 mm 3 m/s 774 mmHg 80%
15:00 +8°C° 0 mm 2 m/s 775 mmHg 84%
16:00 +7°C° 0 mm 2 m/s 775 mmHg 87%
17:00 +7°C° 0 mm 1 m/s 775 mmHg 90%
18:00 +6°C° 0 mm 1 m/s 776 mmHg 91%
19:00 +6°C° 0 mm 1 m/s 776 mmHg 91%
20:00 +6°C° 0 mm 1 m/s 777 mmHg 92%
21:00 +6°C° 0 mm 1 m/s 777 mmHg 92%
22:00 +4°C° 0 mm 0 m/s 777 mmHg 92%
23:00 +4°C° 0 mm 0 m/s 777 mmHg 93%

5 Noiembrie, Joi

Timp Temperatura Precipitaţii Vânt Presiune Umiditate
00:00 +4°C° 0 mm 0 m/s 777 mmHg 93%
01:00 +4°C° 0 mm 0 m/s 777 mmHg 93%
02:00 +4°C° 0 mm 0 m/s 777 mmHg 93%
03:00 +3°C° 0 mm 0 m/s 777 mmHg 93%
04:00 +3°C° 0 mm 0 m/s 777 mmHg 93%
05:00 +3°C° 0 mm 0 m/s 777 mmHg 93%
06:00 +4°C° 0 mm 0 m/s 777 mmHg 93%
07:00 +5°C° 0 mm 1 m/s 777 mmHg 93%
08:00 +6°C° 0 mm 1 m/s 777 mmHg 92%
09:00 +7°C° 0 mm 1 m/s 777 mmHg 88%
10:00 +8°C° 0 mm 1 m/s 777 mmHg 84%
11:00 +10°C° 0 mm 1 m/s 777 mmHg 79%
12:00 +10°C° 0 mm 1 m/s 777 mmHg 79%
13:00 +10°C° 0 mm 1 m/s 776 mmHg 79%
14:00 +11°C° 0 mm 1 m/s 776 mmHg 79%
15:00 +9°C° 0 mm 1 m/s 776 mmHg 83%
16:00 +8°C° 0 mm 1 m/s 775 mmHg 88%
17:00 +6°C° 0 mm 1 m/s 775 mmHg 92%
18:00 +6°C° 0 mm 1 m/s 775 mmHg 92%
19:00 +6°C° 0 mm 1 m/s 775 mmHg 93%
20:00 +5°C° 0 mm 1 m/s 775 mmHg 93%
21:00 +5°C° 0 mm 1 m/s 775 mmHg 93%
22:00 +5°C° 0 mm 1 m/s 774 mmHg 94%
23:00 +5°C° 0 mm 1 m/s 774 mmHg 94%
Arată mai mult

Formular de consimțământ

Meteoprog și furnizorii noștri de servicii pot stoca și accesa date personale, precum cookies, identificatori de dispozitiv sau alte tehnologii similare pe dispozitivul dumneavoastră și procesa astfel de date pentru a personaliza conținutul și reclamele, dar și pentru a oferi caracteristici de social media și pentru a analiza traficul.

  • Stocarea și/sau accesarea informațiilor pe dispozitivul dumneavoastră

    Cookies, identificatori de dispozitiv sau alte informații pot fi stocate sau accesate pe dispozitiv în scopurile indicate mai sus.

  • Reclame și conținut personalizat, evaluarea reclamelor și a conținutului, informații despre audiențe și dezvoltarea produselor

    Reclamele și conținutul pot fi personalizate pe baza unui profil. Pot fi adăugate date suplimentare pentru a personaliza mai bine reclamele și conținutul. Performanța reclamelor și conținutului poate fi măsurată. Pot fi obținute informații despre utilizatorii care au văzut reclamele și conținutul. Aceste date pot fi utilizate pentru a dezvolta sau îmbunătăți experiența utilizatorilor, sistemele și software-ul.

Dând clic pe ‘Sunt de acord’, permiteți utilizarea cookie-urilor menționate, a identificatorilor de dispozitiv, balizelor web sau altor tehnologii similare. Setările pot fi modificate din browser-ul dispozitivului dumneavoastră.

În anumite scopuri, interesele legitime pot prima asupra consimțământului. Puteți citi mai multe informații în acest sens în Politica privind Confidențialitatea Datelor și Cookie.